Location: McFarlands Corners
(41.4117°N, 81.3382°W)
Time: 08:20:53
(UTC+00:00)

Vanguard 2 Rocket - All Passes

Search period start: 17 February 2026 00:00
Search period end: 27 February 2026 00:00
Orbit: 553 x 3286 km, 32.9° (Epoch: 16 February)

Date Brightness Start Highest point End Pass type
(mag) Time Alt. Az. Time Alt. Az. Time Alt. Az.
17 Feb - 00:31:25 10° WSW 00:35:56 15° SW 00:39:28 10° S visible
17 Feb - 14:23:50 10° SSE 14:33:26 16° SE 14:42:25 10° ESE daylight
17 Feb - 16:31:38 10° SSW 16:48:39 38° SSE 17:01:42 10° E daylight
17 Feb - 18:46:43 10° WSW 19:04:20 55° S 19:15:25 10° E daylight
17 Feb - 21:04:36 10° W 21:19:01 54° SSW 21:27:18 10° ESE daylight
17 Feb - 23:22:59 10° W 23:31:34 27° SW 23:37:12 10° SSE visible
18 Feb - 15:26:13 10° SSW 15:41:52 30° SE 15:55:14 10° E daylight
18 Feb - 17:39:17 10° SW 17:57:38 51° SSE 18:10:19 10° E daylight
18 Feb - 19:56:27 10° WSW 20:13:06 59° S 20:22:58 10° ESE daylight
18 Feb - 22:14:53 10° W 22:26:47 40° SSW 22:33:53 10° SE daylight
19 Feb - 00:35:43 10° WSW 00:37:59 11° SW 00:40:01 10° SSW visible
19 Feb - 14:22:09 10° S 14:35:12 22° SE 14:47:27 10° E daylight
19 Feb - 16:32:31 10° SW 16:50:41 45° SSE 17:04:44 10° E daylight
19 Feb - 18:48:26 10° WSW 19:06:40 60° S 19:18:15 10° E daylight
19 Feb - 21:06:41 10° W 21:21:25 52° SSW 21:30:02 10° SE daylight
19 Feb - 23:25:43 10° W 23:33:42 23° SW 23:39:13 10° S visible
20 Feb - 13:20:42 10° SSE 13:28:50 14° SE 13:36:57 10° ESE daylight
20 Feb - 15:26:39 10° SSW 15:43:42 37° SSE 15:58:29 10° E daylight
20 Feb - 17:40:48 10° WSW 17:59:49 57° SSE 18:13:09 10° E daylight
20 Feb - 19:58:25 10° W 20:15:29 59° S 20:25:43 10° ESE daylight
20 Feb - 22:17:11 10° W 22:28:59 35° SSW 22:36:17 10° SSE daylight
21 Feb - 14:21:52 10° SSW 14:36:53 29° SE 14:51:15 10° E daylight
21 Feb - 16:33:48 10° SW 16:52:41 52° SSE 17:07:35 10° E daylight
21 Feb - 18:50:17 10° WSW 19:08:58 62° S 19:21:01 10° ESE daylight
21 Feb - 21:08:47 10° W 21:23:41 48° SSW 21:32:36 10° SE daylight
21 Feb - 23:28:48 10° W 23:35:39 18° SW 23:40:45 10° S visible
22 Feb - 13:18:40 10° S 13:30:24 20° SE 13:42:26 10° E daylight
22 Feb - 15:27:36 10° SW 15:45:31 44° SSE 16:01:24 10° E daylight
22 Feb - 17:42:31 10° WSW 18:01:59 61° S 18:15:53 10° E daylight
22 Feb - 20:00:26 10° W 20:17:45 57° SSW 20:28:23 10° ESE daylight
22 Feb - 22:19:37 10° W 22:31:01 30° SW 22:38:25 10° SSE daylight
23 Feb - 12:19:28 10° SE 12:24:20 11° SE 12:29:21 10° ESE daylight
23 Feb - 14:22:23 10° SSW 14:38:31 36° SE 14:54:26 10° E daylight
23 Feb - 16:35:22 10° SW 16:54:42 57° SSE 17:10:16 10° E daylight
23 Feb - 18:52:14 10° W 19:11:13 63° S 19:23:42 10° ESE daylight
23 Feb - 21:10:57 10° W 21:25:48 42° SSW 21:35:00 10° SE daylight
23 Feb - 23:32:43 10° WSW 23:37:28 13° SW 23:41:22 10° SSW visible
24 Feb - 13:18:21 10° S 13:31:54 26° SE 13:46:20 10° E daylight
24 Feb - 15:28:58 10° SW 15:47:20 51° SSE 16:04:06 10° E daylight
24 Feb - 17:44:25 10° WSW 18:04:08 64° S 18:18:32 10° ESE daylight
24 Feb - 20:02:29 10° W 20:19:55 53° SSW 20:30:56 10° SE daylight
24 Feb - 22:22:16 10° W 22:32:52 25° SW 22:40:11 10° S daylight
25 Feb - 12:16:12 10° SSE 12:25:46 17° SE 12:36:14 10° E daylight
25 Feb - 14:23:27 10° SSW 14:40:09 42° SSE 14:57:15 10° E daylight
25 Feb - 16:37:10 10° WSW 16:56:43 62° S 17:12:53 10° E daylight
25 Feb - 18:54:16 10° W 19:13:22 61° SSW 19:26:18 10° ESE daylight
25 Feb - 21:13:12 10° W 21:27:45 37° SW 21:37:10 10° SSE daylight
26 Feb - 13:18:54 10° SSW 13:33:22 33° SE 13:49:31 10° E daylight
26 Feb - 15:30:38 10° SW 15:49:11 57° SSE 16:06:40 10° E daylight
26 Feb - 17:46:26 10° WSW 18:06:15 65° S 18:21:07 10° ESE daylight
26 Feb - 20:04:36 10° W 20:21:56 49° SSW 20:33:17 10° SE daylight
26 Feb - 22:25:21 10° W 22:34:33 19° SW 22:41:26 10° S daylight
